This is the latest recevied weather packets stored in our database for station/object EA6MW-10. If no packets are shown the sender has not sent any weather packets the latest 10 day(s).
| Time | Temp. | Humidity | Pressure | Rain* | Wind** | Luminosity | Snow |
|---|---|---|---|---|---|---|---|
| 1777586827 | 15° C | 95% | 1018.3 hPa | - | - | - | - |
| 1777585927 | 15° C | 95% | 1018.2 hPa | - | - | - | - |
| 1777585026 | 15° C | 95% | 1018.2 hPa | - | - | - | - |
| 1777584126 | 15° C | 95% | 1018.2 hPa | - | - | - | - |
| 1777583226 | 15° C | 94% | 1018 hPa | - | - | - | - |
| 1777582325 | 15.56° C | 94% | 1017.8 hPa | - | - | - | - |
| 1777581425 | 15.56° C | 94% | 1017.6 hPa | - | - | - | - |
| 1777580525 | 15.56° C | 94% | 1017.6 hPa | - | - | - | - |
| 1777579625 | 15.56° C | 94% | 1017.2 hPa | - | - | - | - |
| 1777578725 | 16.11° C | 93% | 1017.1 hPa | - | - | - | - |
| 1777577824 | 16.11° C | 92% | 1017 hPa | - | - | - | - |
| 1777576924 | 16.67° C | 91% | 1017 hPa | - | - | - | - |
| 1777576024 | 16.67° C | 90% | 1016.8 hPa | - | - | - | - |
| 1777575124 | 17.22° C | 89% | 1016.6 hPa | - | - | - | - |
| 1777574224 | 17.78° C | 87% | 1016.4 hPa | - | - | - | - |
| 1777573323 | 18.33° C | 84% | 1016.3 hPa | - | - | - | - |
| 1777572423 | 18.89° C | 81% | 1016.3 hPa | - | - | - | - |
| 1777571523 | 19.44° C | 77% | 1016.2 hPa | - | - | - | - |
| 1777570623 | 20.56° C | 75% | 1016.2 hPa | - | - | - | - |
| 1777569723 | 20.56° C | 73% | 1016.3 hPa | - | - | - | - |
| 1777568822 | 21.11° C | 73% | 1016.1 hPa | - | - | - | - |
| 1777567922 | 21.11° C | 72% | 1016.2 hPa | - | - | - | - |
| 1777567022 | 21.67° C | 71% | 1016.3 hPa | - | - | - | - |
| 1777566122 | 22.22° C | 68% | 1016.1 hPa | - | - | - | - |
| 1777565222 | 22.22° C | 67% | 1016.1 hPa | - | - | - | - |
* Rain since midnight (hover to see other rain measurements)
** Current wind speed in m/s (hover to see current wind gust speed)